• In Deutschland
  • Länderverzeichnis
  • Für 7 Tage
  • Wassertemperatur
  • Satellitenkarten
  • Wetterkarte
  • Widgets
  • user-avatar
    Anmelden

    Stündliche Wetter Bauru

    Heute, 19 September, Mittwoch

    Zeit Temperatur Niederschläge Wind Luftdruck Luftfeuchtigkeit
    00:00 +22°C° 0 mm 1 m/S 714 mmHg 90%
    01:00 +22°C° 0 mm 1 m/S 714 mmHg 91%
    02:00 +22°C° 0 mm 1 m/S 714 mmHg 92%
    03:00 +22°C° 0 mm 1 m/S 714 mmHg 93%
    04:00 +22°C° 0 mm 1 m/S 714 mmHg 93%
    05:00 +21°C° 0 mm 1 m/S 714 mmHg 94%
    06:00 +21°C° 0 mm 1 m/S 715 mmHg 94%
    07:00 +23°C° 0 mm 1 m/S 715 mmHg 86%
    08:00 +25°C° 0 mm 1 m/S 716 mmHg 78%
    09:00 +27°C° 0 mm 2 m/S 717 mmHg 70%
    10:00 +29°C° 0.1 mm 2 m/S 717 mmHg 63%
    11:00 +31°C° 0.1 mm 2 m/S 717 mmHg 56%
    12:00 +32°C° 0.1 mm 2 m/S 717 mmHg 49%
    13:00 +32°C° 0.1 mm 2 m/S 716 mmHg 48%
    14:00 +32°C° 0.1 mm 2 m/S 716 mmHg 48%
    15:00 +32°C° 0.1 mm 2 m/S 716 mmHg 48%
    16:00 +31°C° 0 mm 1 m/S 716 mmHg 51%
    17:00 +30°C° 0 mm 1 m/S 716 mmHg 55%
    18:00 +27°C° 0 mm 0 m/S 716 mmHg 58%
    19:00 +28°C° 0.1 mm 1 m/S 716 mmHg 62%
    20:00 +27°C° 0.1 mm 1 m/S 716 mmHg 65%
    21:00 +26°C° 0.1 mm 2 m/S 717 mmHg 69%
    22:00 +26°C° 0 mm 2 m/S 717 mmHg 71%
    23:00 +25°C° 0 mm 2 m/S 717 mmHg 73%

    Morgen, 20 September, Donnerstag

    Zeit Temperatur Niederschläge Wind Luftdruck Luftfeuchtigkeit
    00:00 +24°C° 0 mm 1 m/S 716 mmHg 75%
    01:00 +24°C° 0 mm 2 m/S 716 mmHg 76%
    02:00 +24°C° 0 mm 2 m/S 716 mmHg 76%
    03:00 +24°C° 0 mm 2 m/S 715 mmHg 77%
    04:00 +23°C° 0 mm 2 m/S 715 mmHg 79%
    05:00 +23°C° 0 mm 2 m/S 715 mmHg 80%
    06:00 +21°C° 0 mm 2 m/S 715 mmHg 82%
    07:00 +24°C° 0 mm 2 m/S 716 mmHg 75%
    08:00 +26°C° 0 mm 2 m/S 716 mmHg 69%
    09:00 +28°C° 0 mm 2 m/S 717 mmHg 62%
    10:00 +30°C° 0 mm 3 m/S 717 mmHg 56%
    11:00 +31°C° 0 mm 3 m/S 717 mmHg 50%
    12:00 +34°C° 0 mm 3 m/S 717 mmHg 44%
    13:00 +34°C° 0 mm 3 m/S 716 mmHg 43%
    14:00 +34°C° 0 mm 4 m/S 715 mmHg 42%
    15:00 +34°C° 0 mm 4 m/S 715 mmHg 42%
    16:00 +32°C° 1.5 mm 4 m/S 715 mmHg 49%
    17:00 +29°C° 1.5 mm 4 m/S 715 mmHg 56%
    18:00 +28°C° 1.5 mm 5 m/S 715 mmHg 63%
    19:00 +26°C° 6.5 mm 4 m/S 715 mmHg 71%
    20:00 +22°C° 6.5 mm 3 m/S 716 mmHg 79%
    21:00 +20°C° 6.5 mm 2 m/S 716 mmHg 87%
    22:00 +20°C° 0.1 mm 2 m/S 716 mmHg 86%
    23:00 +20°C° 0.1 mm 2 m/S 716 mmHg 85%

    übermorgen, 21 September, Freitag

    Zeit Temperatur Niederschläge Wind Luftdruck Luftfeuchtigkeit
    00:00 +20°C° 0.1 mm 2 m/S 716 mmHg 84%
    01:00 +20°C° 0.1 mm 2 m/S 716 mmHg 84%
    02:00 +21°C° 0.1 mm 1 m/S 716 mmHg 85%
    03:00 +21°C° 0.1 mm 1 m/S 715 mmHg 85%
    04:00 +21°C° 0 mm 1 m/S 715 mmHg 86%
    05:00 +21°C° 0 mm 1 m/S 715 mmHg 87%
    06:00 +20°C° 0 mm 1 m/S 715 mmHg 88%
    07:00 +22°C° 0 mm 1 m/S 716 mmHg 83%
    08:00 +23°C° 0 mm 2 m/S 717 mmHg 78%
    09:00 +25°C° 0 mm 2 m/S 718 mmHg 73%
    10:00 +27°C° 0 mm 2 m/S 718 mmHg 66%
    11:00 +29°C° 0 mm 2 m/S 718 mmHg 59%
    12:00 +31°C° 0 mm 2 m/S 718 mmHg 52%
    13:00 +31°C° 0 mm 2 m/S 717 mmHg 50%
    14:00 +32°C° 0 mm 2 m/S 716 mmHg 48%
    15:00 +32°C° 0 mm 1 m/S 715 mmHg 45%
    16:00 +31°C° 0 mm 1 m/S 715 mmHg 50%
    17:00 +30°C° 0 mm 1 m/S 715 mmHg 54%
    18:00 +29°C° 0 mm 1 m/S 715 mmHg 59%
    19:00 +28°C° 0 mm 1 m/S 715 mmHg 61%
    20:00 +27°C° 0 mm 1 m/S 716 mmHg 63%
    21:00 +26°C° 0 mm 1 m/S 716 mmHg 65%
    22:00 +26°C° 0.2 mm 2 m/S 716 mmHg 68%
    23:00 +25°C° 0.2 mm 2 m/S 716 mmHg 71%

    22 September, Samstag

    Zeit Temperatur Niederschläge Wind Luftdruck Luftfeuchtigkeit
    00:00 +24°C° 0.2 mm 2 m/S 716 mmHg 74%
    01:00 +24°C° 0 mm 2 m/S 715 mmHg 77%
    02:00 +23°C° 0 mm 2 m/S 715 mmHg 80%
    03:00 +23°C° 0 mm 2 m/S 715 mmHg 82%
    04:00 +21°C° 0 mm 2 m/S 715 mmHg 85%
    05:00 +21°C° 0 mm 2 m/S 715 mmHg 87%
    06:00 +21°C° 0 mm 2 m/S 716 mmHg 89%
    07:00 +24°C° 0 mm 2 m/S 716 mmHg 81%
    08:00 +25°C° 0 mm 2 m/S 717 mmHg 74%
    09:00 +27°C° 0 mm 2 m/S 717 mmHg 66%
    10:00 +29°C° 0 mm 2 m/S 717 mmHg 59%
    11:00 +31°C° 0 mm 2 m/S 717 mmHg 51%
    12:00 +33°C° 0 mm 1 m/S 717 mmHg 44%
    13:00 +34°C° 0 mm 1 m/S 716 mmHg 42%
    14:00 +34°C° 0 mm 1 m/S 715 mmHg 40%
    15:00 +33°C° 0 mm 0 m/S 714 mmHg 37%
    16:00 +31°C° 0 mm 0 m/S 714 mmHg 42%
    17:00 +30°C° 0 mm 0 m/S 714 mmHg 46%
    18:00 +30°C° 0 mm 1 m/S 714 mmHg 50%
    19:00 +30°C° 0 mm 1 m/S 715 mmHg 52%
    20:00 +29°C° 0 mm 1 m/S 715 mmHg 54%
    21:00 +28°C° 0 mm 2 m/S 715 mmHg 55%
    22:00 +27°C° 0 mm 2 m/S 715 mmHg 57%
    23:00 +27°C° 0 mm 2 m/S 715 mmHg 59%

    23 September, Sonntag

    Zeit Temperatur Niederschläge Wind Luftdruck Luftfeuchtigkeit
    00:00 +26°C° 0 mm 2 m/S 715 mmHg 61%
    01:00 +25°C° 0 mm 2 m/S 715 mmHg 63%
    02:00 +25°C° 0 mm 2 m/S 714 mmHg 65%
    03:00 +24°C° 0 mm 2 m/S 714 mmHg 67%
    04:00 +24°C° 0 mm 2 m/S 715 mmHg 68%
    05:00 +24°C° 0 mm 2 m/S 715 mmHg 70%
    06:00 +23°C° 0 mm 2 m/S 715 mmHg 71%
    07:00 +25°C° 0 mm 2 m/S 716 mmHg 65%
    08:00 +27°C° 0 mm 2 m/S 716 mmHg 59%
    09:00 +29°C° 0 mm 3 m/S 717 mmHg 53%
    10:00 +31°C° 0 mm 2 m/S 717 mmHg 47%
    11:00 +34°C° 0 mm 2 m/S 716 mmHg 42%
    12:00 +36°C° 0 mm 2 m/S 716 mmHg 37%
    13:00 +35°C° 0 mm 1 m/S 716 mmHg 34%
    14:00 +36°C° 0 mm 1 m/S 715 mmHg 32%
    15:00 +35°C° 0 mm 0 m/S 715 mmHg 29%
    16:00 +35°C° 0 mm 1 m/S 715 mmHg 33%
    17:00 +33°C° 0 mm 1 m/S 715 mmHg 37%
    18:00 +32°C° 0 mm 1 m/S 715 mmHg 41%
    19:00 +31°C° 0 mm 1 m/S 715 mmHg 43%
    20:00 +29°C° 0 mm 1 m/S 715 mmHg 45%
    21:00 +28°C° 0 mm 1 m/S 715 mmHg 47%
    22:00 +28°C° 0 mm 1 m/S 715 mmHg 49%
    23:00 +27°C° 0 mm 2 m/S 715 mmHg 51%

    24 September, Montag

    Zeit Temperatur Niederschläge Wind Luftdruck Luftfeuchtigkeit
    00:00 +27°C° 0 mm 2 m/S 715 mmHg 52%
    01:00 +26°C° 0 mm 1 m/S 715 mmHg 54%
    02:00 +26°C° 0 mm 1 m/S 715 mmHg 55%
    03:00 +25°C° 0 mm 1 m/S 715 mmHg 57%
    04:00 +25°C° 0 mm 1 m/S 715 mmHg 59%
    05:00 +25°C° 0 mm 2 m/S 715 mmHg 61%
    06:00 +24°C° 0 mm 2 m/S 716 mmHg 63%
    07:00 +26°C° 0 mm 2 m/S 716 mmHg 60%
    08:00 +28°C° 0 mm 3 m/S 716 mmHg 57%
    09:00 +30°C° 0 mm 4 m/S 717 mmHg 54%
    10:00 +33°C° 0 mm 3 m/S 717 mmHg 47%
    11:00 +35°C° 0 mm 2 m/S 717 mmHg 41%
    12:00 +36°C° 0 mm 1 m/S 717 mmHg 35%
    13:00 +36°C° 0 mm 1 m/S 716 mmHg 33%
    14:00 +36°C° 0 mm 1 m/S 715 mmHg 31%
    15:00 +36°C° 0 mm 1 m/S 715 mmHg 30%
    16:00 +34°C° 0 mm 1 m/S 715 mmHg 34%
    17:00 +33°C° 0 mm 1 m/S 715 mmHg 38%
    18:00 +31°C° 0 mm 1 m/S 715 mmHg 42%
    19:00 +31°C° 0 mm 1 m/S 715 mmHg 43%
    20:00 +30°C° 0 mm 1 m/S 715 mmHg 44%
    21:00 +29°C° 0 mm 1 m/S 715 mmHg 46%
    22:00 +28°C° 0 mm 2 m/S 715 mmHg 47%
    23:00 +28°C° 0 mm 2 m/S 715 mmHg 49%
    Mehr zeigen